Weather History for Bismarck, ND

Change the Weather History Date:

Saturday, March 31, 2012

  Actual Average Record
Temperature  
Mean Temperature 62 °F 37 °F  
Max Temperature 75 °F 49 °F 75 °F (1963)
Min Temperature 49 °F 25 °F -8 °F (1975)
Degree Days  
Heating Degree Days 3 28  
Month to date heating degree days 668 1089  
Since 1 July heating degree days 6167 7519  
Cooling Degree Days 0 0  
Month to date cooling degree days 0 0  
Year to date cooling degree days 0 0  
Growing Degree Days 10 (Base 50)    
Moisture  
Dew Point 37 °F    
Average Humidity 49    
Maximum Humidity 71    
Minimum Humidity 27    
Precipitation  
Precipitation 0.00 in 0.03 in 0.54 in (2014)
Month to date precipitation 0.53 0.87  
Year to date precipitation 1.31 1.81  
Snow  
Snow 0.00 in 0.30 in 1.60 in (1932)
Month to date snowfall 0.5 9.1  
Since 1 July snowfall 13.6 46.6  
Snow Depth 0.00 in    
Sea Level Pressure  
Sea Level Pressure 29.63 in    
Wind  
Wind Speed 7 mph (NNW)    
Max Wind Speed 18 mph    
Max Gust Speed 23 mph    
Visibility 10 miles    
Events      
T = Trace of Precipitation, MM = Missing Value Source: NWS Daily Summary

Daily Weather History Graph

Daily Weather History Graph

Search for Another Location

Airport:

Trip Planner

Search our weather history database for the weather conditions in past years. The results will help you decide how hot, cold, wet, or windy it might be!

Date:

Astronomy

Mar. 31, 2012 Rise Set
Actual Time 7:23 AM CDT 8:11 PM CDT
Civil Twilight 6:52 AM CDT 8:42 PM CDT
Nautical Twilight 6:16 AM CDT 9:18 PM CDT
Astronomical Twilight 5:37 AM CDT 9:57 PM CDT
Moon 1:18 PM CDT (3/31) 3:44 AM CDT (3/31)
Length of Visible Light 13h 49m
Length of Day
12h 48m
First Quarter, 59% of the Moon is Illuminated
Mar 31
First Quarter
Apr 6
Full
Apr 13
Last Quarter
Apr 21
New
Apr 29
First Quarter

Hourly Weather History & Observations

Time (CDT) Temp. Dew Point Humidity Pressure Visibility Wind Dir Wind Speed Gust Speed Precip Events Conditions
12:52 AM 48.9 °F 39.9 °F 71% 29.58 in 10.0 mi ESE 3.5 mph - N/A   Clear
1:52 AM 51.1 °F 39.0 °F 63% 29.58 in 10.0 mi SSW 3.5 mph - N/A   Clear
2:52 AM 54.0 °F 37.0 °F 53% 29.58 in 10.0 mi Calm Calm - N/A   Clear
3:52 AM 50.0 °F 37.0 °F 61% 29.59 in 10.0 mi West 6.9 mph - N/A   Partly Cloudy
4:52 AM 52.0 °F 37.0 °F 57% 29.58 in 10.0 mi SW 5.8 mph - N/A   Clear
5:52 AM 48.9 °F 36.0 °F 61% 29.62 in 10.0 mi Calm Calm - N/A   Clear
6:52 AM 53.1 °F 34.0 °F 48% 29.65 in 10.0 mi NW 5.8 mph - N/A   Clear
7:52 AM 51.1 °F 35.1 °F 54% 29.68 in 10.0 mi West 3.5 mph - N/A   Clear
8:52 AM 55.0 °F 37.9 °F 53% 29.69 in 10.0 mi West 4.6 mph - N/A   Clear
9:52 AM 59.0 °F 36.0 °F 42% 29.71 in 10.0 mi WNW 8.1 mph - N/A   Clear
10:52 AM 63.0 °F 35.1 °F 35% 29.73 in 10.0 mi NW 12.7 mph - N/A   Clear
11:52 AM 64.9 °F 33.1 °F 31% 29.72 in 10.0 mi NNW 8.1 mph - N/A   Clear
12:52 PM 66.9 °F 35.1 °F 31% 29.70 in 10.0 mi Variable 3.5 mph - N/A   Clear
1:52 PM 70.0 °F 36.0 °F 29% 29.67 in 10.0 mi NNW 8.1 mph - N/A   Clear
2:52 PM 71.1 °F 36.0 °F 28% 29.66 in 10.0 mi Variable 5.8 mph - N/A   Clear
3:52 PM 71.1 °F 36.0 °F 28% 29.65 in 10.0 mi Variable 3.5 mph - N/A   Clear
4:52 PM 73.0 °F 37.9 °F 28% 29.63 in 10.0 mi SSE 6.9 mph - N/A   Clear
5:52 PM 73.0 °F 37.9 °F 28% 29.62 in 10.0 mi Variable 6.9 mph - N/A   Clear
6:52 PM 71.6 °F 39.2 °F 31% 29.61 in 10.0 mi SE 6.9 mph - N/A   Clear
7:52 PM 63.0 °F 42.1 °F 46% 29.60 in 10.0 mi East 9.2 mph - N/A   Clear
8:52 PM 59.0 °F 39.9 °F 49% 29.59 in 10.0 mi East 10.4 mph - N/A   Clear
9:52 PM 57.0 °F 39.0 °F 51% 29.58 in 10.0 mi East 13.8 mph - N/A   Clear
10:52 PM 57.9 °F 37.0 °F 46% 29.57 in 10.0 mi East 17.3 mph - N/A   Clear
11:52 PM 53.1 °F 37.9 °F 57% 29.55 in 10.0 mi ENE 5.8 mph - N/A   Clear